Regional Weather Roundup
Issued by NWS Sterling, VA

Home | Current Version | Previous Version | Text Only | Print | Product List | Glossary On
Versions: 1 2 3 4 5 6 7 8 9 10 11 12 13 14 15 16 17 18 19 20 21 22 23 24 25 26 27 28 29 30 31 32 33 34 35 36 37 38 39 40 41 42 43 44 45 46 47 48 49 50
000
ASUS41 KLWX 290810
RWRLWX

REGIONAL WEATHER ROUNDUP
NATIONAL WEATHER SERVICE BALTIMORE MD/WASHINGTON DC
300 AM EST THU JAN 29 2015

Note: "FAIR" indicates few or no clouds below 12,000 feet
with no significant weather and/or obstructions to visibility.
 TC=TEMPERATURE CELSIUS

 * =Non NWS site. Station does not report precipitation (e.g. rain,
    snow, etc.), thunder, or fog.

DCZ001-MDZ009-015-VAZ040>042-051-053>054-290900-
WASHINGTON METRO

CITY           SKY/WX    TMP DP  RH WIND       PRES   REMARKS
WASHINGTON NAT CLEAR     28   9  44 N5        30.34F
DULLES         PTCLDY    16  10  77 CALM      30.33F
ANDREWS AFB    CLEAR     24   8  49 CALM      30.32S
FT BELVOIR     CLEAR     18  13  80 S1        30.35S
QUANTICO       CLEAR     22  13  68 NW6       30.36F
COLLEGE PARK*  CLEAR     21  14  73 CALM      30.33F
LEESBURG*      PTCLDY    19  12  73 NW3       30.33F
MANASSAS*      CLEAR     16  14  93 CALM      30.34F
GAITHERSBURG*  CLEAR     16   7  67 CALM      30.34F

$$

MDZ006>007-011-014-290900-
BALTIMORE METRO

CITY           SKY/WX    TMP DP  RH WIND       PRES   REMARKS
BWI AIRPORT    CLEAR     21   6  52 W5        30.33R
MD SCIENCE CTR   N/A     26   6  42 MISG      30.33R
MARTIN STATE   CLEAR     25  12  58 CALM      30.35R
ANNAPOLIS      CLEAR     26   8  46 NW5       30.33S
FORT MEADE*    CLEAR     16  12  86 CALM      30.36S

$$

MDZ012-015-019>023-290900-
MARYLAND EASTERN SHORE

CITY           SKY/WX    TMP DP  RH WIND       PRES   REMARKS
OCEAN CITY     CLEAR     23  10  57 N6        30.31F
SALISBURY      CLEAR     22  13  68 CALM      30.32R
BAY BRIDGE AP*   N/A     28  10  47 NW6       30.34R
CAMBRIDGE*     CLEAR     28  16  59 CALM      30.32S
EASTON*        CLEAR     24  17  73 CALM      30.36S

$$

MDZ017>025-290900-
SOUTHERN MARYLAND

CITY           SKY/WX    TMP DP  RH WIND       PRES   REMARKS
PATUXENT RIVER CLEAR     21  10  62 W7        30.34R
ST INIGOES     CLEAR     26   7  44 CALM      30.34R
LEONARDTOWN*   CLEAR     21  10  63 W5        30.35R

$$

MDZ003>005-290900-
NORTH CENTRAL MARYLAND

CITY           SKY/WX    TMP DP  RH WIND       PRES   REMARKS
FREDERICK*     CLEAR     18  12  79 CALM      30.36S
HAGERSTOWN APT PTCLDY    16   4  59 CALM      30.31S
WESTMINSTER*   PTCLDY    19   3  49 CALM      30.28F

$$

MDZ501>502-290900-
WESTERN MARYLAND

CITY           SKY/WX    TMP DP  RH WIND       PRES   REMARKS
OAKLAND*       MOCLDY    21  -2  35 SE9       30.13S WCI  11
CUMBERLAND*    PTCLDY    14   9  79 CALM      30.36R

$$

VAZ025>031-290900-
SHENANDOAH VALLEY

CITY           SKY/WX    TMP DP  RH WIND       PRES   REMARKS
WINCHESTER*    CLEAR     19   7  58 CALM      30.31S
FRONT ROYAL*   FAIR      18  12  79 CALM      30.30S
LURAY*         FAIR      19  18  93 SW5       30.31R
NEW MARKET*    FAIR      14  10  86 CALM      30.31R
STAUNTON*      PTCLDY    18  13  84 CALM      30.31S
WAYNESBORO*    FAIR      16  10  78 CALM      30.29R

$$

WVZ021-048>050-054>055-290900-
EASTERN WEST VIRGINIA PANHANDLE

CITY           SKY/WX    TMP DP  RH WIND       PRES   REMARKS
MARTINSBURG    CLEAR     12   5  73 CALM      30.32S
PETERSBURG*    CLEAR     13  11  90 CALM      30.31F

$$

VAZ036>039-050-290900-
CENTRAL FOOTHILLS

CITY           SKY/WX    TMP DP  RH WIND       PRES   REMARKS
CHARLOTTESVILL CLEAR     20  10  65 SW3       30.33R
CULPEPER*      CLEAR     16  12  86 CALM      30.33S
ORANGE*        CLEAR     18  14  86 S3        30.34S
GORDONSVILLE*  FAIR      15  13  91 CALM      30.33R
WARRENTON*     FAIR      16  16 100 CALM      30.32F

$$

VAZ055>057-290900-
NORTH AND CENTRAL PIEDMONT

CITY           SKY/WX    TMP DP  RH WIND       PRES   REMARKS
FREDERICKSBRG* CLEAR     21  15  76 CALM      30.34S
STAFFORD*      CLEAR     17  12  80 CALM      30.38S

$$

NCZ024-NYZ072-PAZ021-071-VAZ022-071-290900-
OTHER REGIONAL OBSERVATIONS

CITY           SKY/WX    TMP DP  RH WIND       PRES   REMARKS
NEW YORK CITY  CLEAR     21   2  43 VRB5      30.32R
PHILADELPHIA   PTCLDY    24   3  40 N7        30.32S
PITTSBURGH     CLOUDY    20  13  74 CALM      30.19F
ROANOKE        CLEAR     24  15  68 CALM      30.30F
RICHMOND       CLEAR     27   7  42 CALM      30.34S
RALEIGH        PTCLDY    23  16  74 CALM      30.34R

$$

ANZ530>537-290900-
MARINE OBSERVATIONS

STATION/POSITION TIME  TEMP    WIND        PRES
                       AIR SEA DIR/SP/G
                 (UTC) (F)     (DEG/KT/KT) (MB)
THOMAS PT LIGHT  0800   27 35  310/ 11/ 12 1028.1R
BALT KEY BRIDGE  0800   27     270/  9/ 10 1027.0S
COVE POINT       0800   28     320/  6/  8 1026.9S
LEWISETTA        0800   30 35  310/  5/  6 1027.3S
SOLOMONS ISLAND  0800      37                N/A
PINEY POINT      0800          350/ 12/ 13   N/A

$$



USA.gov is the U.S. government's official web portal to all federal, state and local government web resources and services.